www.pogodaiklimat.ru

Погода и климат >> Архив погоды >> Россия >> Красноярский край >> Игарка


АРХИВ ПОГОДЫ в Игарке

Время (UTC), дата Ветер
(напр.,м/с)
 
Видим.   Явления Облачность Т
(С)
Тd
(С)
f
(%)
Тe
(С)
Тes
(С)
Комфортность P
(гПа)
Po
(гПа)
Тmin
(С)
Tmax
(С)
R
(мм)
R24
(мм)
S
(см)
06 16.09 ЮВ 4 20 км 9/9 300 м
[Frnb]
+1.7 -2.0 76 -3 -3 1011.7 1008.2
09 16.09 ЮВ 4 20 км 9/9 1000 м
[Sc]
+3.0 -2.1 69 -1 -1 1009.7 1006.2
12 16.09 ЮВ 6
{12}
10 км слаб. ливневой дождь со снегом 9/9 600 м
[Cb cap]
+2.9 -1.3 74 -3 -3 1007.1 1003.7 +6.9 0.0
15 16.09 В 6
{12}
10 км слаб. ливневой снег 9/9 300 м
[Cb cap]
+1.0 +1.5 100 -6 -6 1005.8 1002.3
18 16.09 ЮВ 4
{12}
10 км {ливн. осадки} 9/9 300 м
[Cb cap]
+1.9 +1.1 94 -3 -3 1004.2 1000.8
21 16.09 ЮВ 4 10 км 9/9 300 м
[Cb cap]
+3.0 +2.2 94 -2 -2 1003.7 1000.2
00 17.09 ЮВ 4 н/о н/о +4.1 +3.6 97 -1 -1 1007.2 999.8 +0.1 0.7
03 17.09 ЮВ 4 10 км слаб. дождь 10/10 100 м
[Frnb Ns]
+5.1 +4.6 97 +1 +1 1002.3 998.9
06 17.09 ЮВ 4 10 км слаб. дождь 10/10 100 м
[Frnb Ns]
+6.7 +6.3 97 +3 +3 1000.8 997.4
09 17.09 ЮВ 6
{10}
20 км {дождь} 9/9 100 м
[Frnb]
+8.6 +7.5 93 +5 +5 999.7 996.3
12 17.09 ЮВ 5
{10}
10 км слаб. ливневой дождь 9/9 300 м
[Cb cap]
+10.2 +9.2 94 +7 +7 999.3 995.9 +10.3 0.8
15 17.09 ЮВ 3
{10}
10 км слаб. ливневой дождь 10/10 200 м
[Cb cap]
+9.2 +8.8 97 +7 +7 998.6 995.2
18 17.09 ЮВ 5
{10}
10 км слаб. ливневой дождь 10/10 300 м
[Cb cap]
+9.5 +8.9 96 +6 +6 997.2 993.8
21 17.09 ЮВ 4
{12}
10 км слаб. ливневой дождь 9/9 600 м
[Cb cap]
+9.5 +8.9 96 +6 +6 995.5 992.1
00 18.09 ЮВ 6
{12}
10 км слаб. ливневой дождь 9/9 600 м
[Cb cap]
+9.2 +8.6 96 +5 +5 994.2 990.8 +8.7 17
03 18.09 ЮВ 6
{13}
10 км слаб. ливневой дождь 9/9 300 м
[Cb cap]
+9.5 +8.5 93 +6 +6 990.4 990.4
06 18.09 ЮВ 5
{11}
20 км {ливн. осадки} 9/8 600 м
[Cb cap Ac cuf Ci ing]
+11.0 +9.8 92 +8 +8 994.1 990.7
09 18.09 З 4 20 км {ливн. осадки} 9/9 200 м
[Cb cap]
+6.2 +5.1 93 +2 +2 997.3 993.9
12 18.09 З 3 10 км слаб. ливневой дождь 9/9 300 м
[Cb cap]
+4.9 +4.0 94 +1 +1 1001.8 998.4 +11.4 4
15 18.09 ЮЗ 2 10 км {ливн. осадки} 9/9 600 м
[Cb cap]
+5.2 +4.3 94 +2 +2 1004.9 1001.5
18 18.09 Ю 2 10 км {ливн. осадки} 9/9 1000 м
[Cb cap]
+5.1 +4.2 94 +2 +2 1006.6 1003.2
21 18.09 В 1 10 км 9/3 1000 м
[Sc Ac trans]
+4.8 +4.1 95 +3 +3 1007.0 1003.6
00 19.09 ЮВ 2 20 км 3/1 200 м
[St Ci fib]
+2.4 +1.9 96 -1 -1 1007.1 1003.7 +2.4 0.5
03 19.09 ЮВ 3 20 км 9/9 300 м
[St]
+4.8 +4.1 95 +1 +1 1006.8 1003.4
06 19.09 ЮВ 5
{10}
20 км 9/8 300 м
[Cb cap Ac cuf]
+8.6 +6.2 85 +5 +5 1004.9 1001.5
09 19.09 ЮВ 4
{10}
20 км 9/6 1000 м
[Sc diur, vesp Ac cuf]
+9.2 +6.4 83 +6 +6 1002.4 999.0
12 19.09 ЮВ 4
{10}
20 км 9/8 600 м
[Sc Ac trans]
+9.3 +6.0 80 +6 +6 1000.5 997.1 +9.4
15 19.09 В 3 10 км слаб. дождь 9/8 1000 м
[Sc Ac As]
+8.0 +6.5 90 +5 +5 997.6 994.2
18 19.09 В 3 10 км слаб. дождь 9/8 600 м
[Sc Ac As]
+7.3 +6.4 94 +4 +4 994.3 990.9
21 19.09 СВ 3 10 км слаб. дождь 9/8 600 м
[Sc Ac As]
+6.7 +5.8 94 +3 +3 992.6 989.2
00 20.09 штиль 0 20 км {дождь} 9/8 1000 м
[Sc Ac As]
+6.3 +5.4 94 +5 +5 992.6 989.2 +6.1 2
03 20.09 Ю 2 20 км в посл. час ливневой дождь 9/9 200 м
[Cb cap]
+7.5 +7.1 97 +5 +5 991.2 987.8
06 20.09 В 3 20 км {ливн. осадки} 9/9 600 м
[Cb cap]
+8.2 +7.1 93 +5 +6 987.9 984.6
09 20.09 В 5 4000 м слаб. ливневой дождь 9/9 300 м
[Cb cap]
+9.0 +8.4 96 +5 +5 981.4 978.1
12 20.09 ЮВ 3 20 км {ливн. осадки} 9/8 600 м
[Cb cap Ac cuf]
+10.2 +9.6 96 +8 +8 978.2 974.9 +10.4 7
15 20.09 Ю 4 10 км 9/4 1000 м
[Sc Ac trans]
+9.7 +8.7 93 +7 +7 977.3 974.0
18 20.09 Ю 5
{10}
10 км сильн. ливневой дождь 9/8 300 м
[Cb cap Ac cuf]
+8.1 +7.2 94 +4 +4 977.4 974.1
21 20.09 Ю 4
{10}
10 км слаб. ливневой дождь 9/9 300 м
[Cb cap]
+7.5 +6.6 94 +4 +4 977.1 973.8
00 21.09 Ю 4 20 км {ливн. осадки} 9/9 300 м
[Cb cap]
+6.5 +5.4 93 +3 +3 977.5 974.2 +6.5 3
03 21.09 З 5
{11}
20 км в посл. час ливневой дождь 9/9 300 м
[Cb cap]
+4.5 +3.3 92 -1 -0 980.1 976.7 +4.5
06 21.09 З 6
{13}
10 км слаб. ливневой дождь 9/9 300 м
[Cb cap]
+3.8 +2.6 92 -2 -2 984.4 981.0
09 21.09 З 5
{15}
10 км слаб. ливневой дождь 9/9 300 м
[Cb cap]
+4.8 +3.6 92 -0 0 990.1 986.7
12 21.09 ЮЗ 5
{11}
10 км слаб. ливневой дождь 10/10 300 м
[Cb cap]
+5.2 +4.3 94 0 0 994.3 990.9 +6.7 7
15 21.09 ЮЗ 5
{14}
10 км {ливн. осадки} 9/9 300 м
[Cb cap]
+4.3 +2.8 90 -1 -1 997.4 994.0
18 21.09 ЮЗ 4-10
{11}
10 км {ливн. осадки} 9/9 300 м
[Cb cap]
+4.1 +2.0 86 -0 -0 1003.9 996.5
21 21.09 ЮЗ 4
{13}
10 км 9/6 1000 м
[Cb cap Ac cuf]
+3.8 +0.9 81 -1 -1 1003.0 999.6
00 22.09 ЮЗ 4 20 км 4/1 1000 м
[Sc Ac trans Ci fib]
+2.2 -0.5 82 -3 -3 1005.9 1002.5 +2.2 0.5
03 22.09 ЮЗ 4
{10}
20 км 4/1 1000 м
[Sc Ac trans Ci fib]
+3.8 +0.1 77 -1 0 1008.1 1004.7
06 22.09 ЮЗ 4
{11}
20 км 3/1 600 м
[Cu hum Ci fib]
+6.7 -0.6 60 +3 +5 1010.7 1007.2
09 22.09 ЮЗ 4
{13}
20 км 9/9 1000 м
[Sc diur, vesp]
+6.9 0.0 61 +4 +4 1012.6 1009.2
12 22.09 ЮЗ 3
{10}
20 км 9/9 1000 м
[Sc]
+6.2 0.0 64 +3 +3 1013.1 1009.6 +7.2
15 22.09 ЮЗ 2 10 км 8/5 1000 м
[Sc Ci fib]
+3.2 -0.3 78 0 0 1013.5 1010.0
18 22.09 ЮВ 3 10 км 8/3 1000 м
[Sc Ci fib]
+0.8 -1.5 85 -4 -4 1012.9 1009.4
21 22.09 ЮВ 5 10 км 6/4 600 м
[Sc Ci fib]
+1.7 -1.4 80 -4 -4 1009.3 1005.8
00 23.09 ЮВ 6
{12}
20 км 4/0 2000 м
[Ci fib]
+3.7 -1.2 70 -2 -2 1004.4 1001.0 +0.6
03 23.09 В 8
{19}
10 км слаб. ливневой дождь 9/9 300 м
[Cb cap]
+2.9 +1.9 93 -4 -4 995.9 992.5

 

Местоположение метеостанции Игарка (Красноярский край, Россия): широта 67.47 долгота 86.57 высота над уровнем моря 28 м.

В архиве по умолчанию представлена погода в Игарке за последнюю неделю. Архивные данные за месяц целиком и за предыдущие месяцы, начиная с января 2011 года, Вы можете получить, выбрав интересующий диапазон дат из раскрывающегося списка и нажав кнопку "Ввод!".


*Определитесь, кто Вы:
робот инопланетянин человек

Внимание! Время в таблицах - всемирное. Для получения местного времени необходимо прибавить поправку, которая равна 7 ч.

Смотрите также архив погоды в соседних городах и на ближайших метеорологических станциях:

Погода в Горбиачине (Красноярский край, Россия) (54 км)
Погода в Снежногорске (Красноярский край, Россия) (86 км)
Погода в Светлогорске (Красноярский край, Россия) (98 км)
Погода в Курейке (Красноярский край, Россия) (115 км)
Погода в Потапово (Красноярский край, Россия) (134 км)
Погода в Советской Речке (Красноярский край, Россия) (140 км)
Погода в Туруханске (Красноярский край, Россия) (197 км)
Погода в Норильске (Красноярский край, Россия) (219 км)
Погода в Большом Пороге (Эвенкия, Россия) (256 км)
Погода в Красноселькупске (Ямало-Ненецкий АО, Россия) (268 км)

Пояснения к столбцам:

Ветер - указаны скорость ветра в м/с - средняя за 10 мин, порывы в срок и между сроками (в фигурных скобках) и направление, откуда дует ветер: С - северный, СВ - северо-восточный, В - восточный, ЮВ - юго-восточный, Ю - южный, ЮЗ - юго-западный, З - западный, СЗ - северо-западный.
Видимость - горизонтальная дальность видимости в метрах или километрах. При видимости от 1 до 10 км при отсутствии осадков обычно наблюдается дымка, при ухудшении видимости до 1 км и менее - туман. В сухую погоду видимость может ухудшаться дымом, пылью или мглою.
Явления - указаны атмосферные явления, наблюдавшиеся в срок или в последний час перед сроком; фигурными скобками обозначены явления, наблюдавшиеся между сроками (за 1-3 часа до срока); квадратными скобками обозначены град или гололедные отложения с указанием их диаметра в мм.
Облачность - указаны через наклонную черту общая и нижняя облачность в баллах и высота нижней границы облаков в метрах; квадратными скобками обозначены формы облаков: Ci - перистые, Cs - перисто-слоистые, Cc - перисто-кучевые, Ac - высококучевые, As - высокослоистые, Sc - слоисто-кучевые, Ns - слоисто-дождевые, Cu - кучевые, Cb - кучево-дождевые. Подробнее классификацию облаков см. в Атласе облаков (PDF).
T - Температура воздуха - температура, измеренная на высоте 2 м над землей.
Td - Температура точки росы - температура, при понижении до которой содержащийся в воздухе водяной пар достигнет насыщения.
f - Относительная влажность воздуха - влажноcть воздуха, измеренная на высоте 2 м над землей.
Te - Эффективная температура - температура, которую ощущает одетый по сезону человек в тени. Характеристика душности погоды. При расчете учитывается влияние влажности воздуха и скорости ветра на теплоощущения человека.
Tes - Эффективная температура на солнце - температура, которую ощущает человек, с поправкой на солнечный нагрев. Характеристика знойности погоды. Зависит от высоты солнца над горизонтом, облачности и скорости ветра. Ночью, в пасмурную погоду, а также при ветре 12 м/с и более поправка равна нулю.
P - Атмосферное давление - приведенное к уровню моря атмосферное давление.
Po - Атмосферное давление - измеренное на уровне метеостанции атмосферное давление.
Tmin - Минимальная температура - минимум температуры воздуха на высоте 2 м над землей.
Tmax - Максимальная температура - максимум температуры воздуха на высоте 2 м над землей.
R - Количество осадков - Количество выпавших осадков за период времени, мм. При наведении курсора мыши на число - период времени, за который выпало указанное количество осадков.
R24 - Количество осадков - Количество выпавших осадков за 24 часа, мм.
S - Снежный покров - Высота снежного покрова, см. При наведении курсора мыши на число - состояние снежного покрова и степень покрытия местности в баллах.